www.pogodaiklimat.ru

АРХИВ ПОГОДЫ в Дулусе

Время (UTC), дата Ветер
(напр.,м/с)
 
Видим.   Явления Облачность Т
(С)
Тd
(С)
f
(%)
Тe
(С)
Тes
(С)
Комфортность

P
(гПа)

Po
(гПа)
Тmin
(С)
Tmax
(С)
R
(мм)
SD
(см)
12:55 25.05 З  16 км    10/10 570 м  +13.9  +8.9  72  +12  +12    1006.6  955.1         
13:55 25.05 З  16 км    10/10 630 м  +13.9  +8.9  72  +11  +11    1007.5  955.8         
14:55 25.05 З  16 км    10/10 720 м  +15.0  +9.4  69  +13  +13    1008.2  956.4         
15:33 25.05 З  9
{13} 
16 км    10/10 720 м  +16.1  +8.9  62  +14  +14      957.1         
15:55 25.05 СЗ  16 км    10/10 900 м  +16.1  +8.9  62  +14  +14    1008.7  957.1         
16:55 25.05 З  7
{10} 
16 км    8/8 1320 м  +18.3  +8.9  54  +18  +18    1009.0  957.4  +11.7  +18.3     
17:55 25.05 З  7
{13} 
16 км    8/8 1350 м  +17.8  +7.8  52  +17  +17    1009.5  958.0         
18:55 25.05 З  8
{12} 
16 км    8/8 1290 м  +18.3  +7.2  48  +18  +18    1010.0  958.4         
19:55 25.05 З  6
{10} 
16 км    8/8 1380 м  +18.3  +7.8  50  +18  +19    1010.7  959.3         
20:55 25.05 З  7
{11} 
16 км    8/8 1470 м  +17.8  +7.2  50  +17  +17    1011.5  960.0         
21:55 25.05 СЗ  6
{10} 
16 км    8/8 1470 м  +18.3  +7.2  48  +18  +18    1012.2  960.6         
22:55 25.05 СЗ  7
{11} 
16 км    10/10 1800 м  +17.2  +6.1  48  +16  +16    1013.1  961.3  +17.2  +20.0     
23:55 25.05 СЗ  16 км    5/5 1800 м  +15.6  +6.7  55  +14  +15    1013.8  962.2         
00:55 26.05 СЗ  16 км    5/5 1800 м  +13.9  +6.1  59  +13  +13    1014.4  962.5         
01:55 26.05 С  16 км    5/5 1800 м  +13.3  +7.2  67  +12  +12    1014.7  962.9         
02:55 26.05   16 км    5/5 1500 м  +12.2  +7.2  71  +12  +12    1015.0  963.2         
03:55 26.05 З  16 км    ясно  +10.0  +6.7  80  +8  +8    1016.2  964.1         
04:55 26.05 СЗ  16 км    ясно  +10.0  +7.2  83  +7  +7    1016.6  964.8  +7.8  +17.2     
05:55 26.05 СЗ  16 км    ясно  +10.6  +6.7  77  +8  +8    1016.3  964.5         
06:55 26.05 СЗ  16 км    ясно  +9.4  +6.1  80  +7  +7    1016.8  964.8         
07:55 26.05 СЗ  16 км    ясно  +9.4  +6.1  80  +7  +7    1017.0  965.1         
08:55 26.05 СЗ  16 км    ясно  +8.9  +6.1  83  +7  +7    1017.6  965.8         
09:55 26.05 С  16 км    ясно  +8.3  +6.7  90  +7  +7    1018.3  966.1         
10:55 26.05 СЗ  16 км    ясно  +10.6  +7.8  83  +10  +10    1018.9  966.7  +8.3  +11.1     
11:55 26.05 С  16 км    ясно  +13.9  +8.3  69  +13  +14    1019.2  967.4         
12:55 26.05 С  16 км    ясно  +16.7  +8.9  60  +16  +19    1019.2  967.4         
13:55 26.05 С  16 км    2/2 900 м  +18.9  +7.8  48  +20  +25    1019.0  967.0         
14:55 26.05 С  16 км    2/2 1500 м  +20.6  +7.2  42  +22  +29  комфорт  1019.1  967.4         
15:55 26.05 С  16 км    5/5 1500 м  +19.4  +6.7  44  +20  +26    1019.7  967.7         
16:55 26.05 нст  16 км    5/5 1650 м  +21.1  +7.2  41  +22  +29  комфорт  1019.3  967.4  +10.6  +21.1     
17:55 26.05 Ю  16 км    8/8 1800 м  +21.7  +6.7  38  +22  +26  комфорт  1019.0  967.0         
18:55 26.05 З  16 км    10/10 1800 м  +22.2  +6.7  37  +23  +23  комфорт  1019.0  967.0         
19:55 26.05 С  16 км    8/8 1800 м  +22.2  +6.7  37  +23  +25  комфорт  1018.5  966.7         
20:55 26.05 В  16 км    8/8 1950 м
[средняя] 
+21.7  +7.2  39  +23  +25  комфорт  1018.5  966.7         
21:55 26.05 В  16 км    8/0 2100 м
[средняя] 
+16.7  +6.1  50  +16  +17    1018.7  966.7         
22:55 26.05 В  16 км    5/0 2700 м
[средняя] 
+13.3  +6.7  64  +11  +12    1019.1  967.0  +13.3  +23.3     
23:55 26.05 В  16 км    5/0 2700 м
[средняя] 
+11.1  +6.1  71  +8  +8    1019.5  967.4         
00:55 27.05 В  16 км    8/0 2700 м
[средняя] 
+10.0  +6.1  77  +6  +7    1019.8  967.7         
01:55 27.05 В  7
{11} 
16 км    8/0 3300 м
[средняя] 
+9.4  +3.9  68  +5  +5    1020.6  968.6         
02:55 27.05 В  16 км    10/5 480 м
[средняя] 
+8.9  +2.8  66  +5  +5    1020.8  968.6         
03:55 27.05 В  16 км    10/0 2400 м
[средняя] 
+8.3  +2.2  65  +5  +5    1021.1  969.0         
04:55 27.05 В  16 км  слабый дождь  10/0 2100 м
[средняя] 
+7.8  +2.8  71  +4  +4    1021.3  969.0  +7.8  +13.3     
05:55 27.05 В  6
{11} 
16 км    10/0 2100 м
[средняя] 
+7.8  +2.2  68  +3  +3    1020.6  968.6         
06:55 27.05 В  16 км    10/0 3000 м
[средняя] 
+7.8  +3.3  73  +3  +3    1019.6  967.7         
07:55 27.05 В  7
{11} 
16 км    10/0 3000 м
[средняя] 
+7.8  0.0  58  +3  +3    1019.2  967.4         
08:55 27.05 В  8
{12} 
16 км    10/0 2400 м
[средняя] 
+7.8  -0.6  55  +3  +3    1018.8  966.7         
09:55 27.05 В  16 км    10/0 2100 м
[средняя] 
+7.8  -1.1  53  +4  +4    1019.0  966.7         
10:55 27.05 В  7
{11} 
16 км    10/5 1950 м
[средняя] 
+7.8  -0.6  55  +3  +3    1018.9  966.4  +7.8  +8.3     

 

Местоположение метеостанции Duluth International Airport: широта 46.8428 долгота -92.2261 высота над уровнем моря 435 м.

В архиве по умолчанию представлена погода в Дулусе за последние 1-2 суток. Обновление информации о фактической погоде в базе происходит ежечасно! Архивные данные за месяц целиком и за предыдущие месяцы Вы можете получить, выбрав интересующий диапазон дат из раскрывающегося списка и нажав кнопку "Ввод!".

Внимание! Архив погоды МЕТАР в базе сайта в настоящее время начинается c 1 января 2011 г. Нет смысла пытаться выбрать более раннюю дату.

Внимание! Время в таблицах - всемирное. Для получения местного времени необходимо прибавить поправку, которая в Дулусе равна -6 ч.

Ветер - указаны скорость ветра в м/с и направление, откуда дует ветер: С - северный, СВ - северо-восточный, В - восточный, ЮВ - юго-восточный, Ю - южный, ЮЗ - юго-западный, З - западный, СЗ - северо-западный.
Видимость - горизонтальная дальность видимости в метрах или километрах. При видимости от 1 до 10 км при отсутствии осадков обычно наблюдается дымка, при ухудшении видимости до 1 км и менее - туман. В сухую погоду видимость может ухудшаться дымом, пылью или мглою.
Атмосферные явления - указаны явления, наблюдавшиеся в указанный момент времени.
Облачность - указаны через наклонную черту верхняя и нижняя облачность в баллах и высота нижней границы облаков в метрах. Внимание: облачность, как и прочие метеорологические величины в США измеряются автоматическими метеостанциями. Указанные значения в баллах носят условный характер и показывают процент времени, в течение которого, в среднем, лазерный луч высотомера отражался от облаков обратно.
T - Температура воздуха - температура, измеренная на высоте 2 м над землей.
Td - Температура точки росы - температура, при понижении до которой содержащийся в воздухе водяной пар достигнет насыщения.
f - Относительная влажность воздуха - влажноcть воздуха, измеренная на высоте 2 м над землей.
Te - Эффективная температура - температура, которую ощущает одетый по сезону человек в тени. Характеристика душности погоды. При расчете учитывается влияние влажности воздуха и скорости ветра на теплоощущения человека.
Tes - Эффективная температура на солнце - температура, которую ощущает человек, с поправкой на солнечный нагрев. Характеристика знойности погоды. Зависит от высоты солнца над горизонтом, облачности и скорости ветра. Ночью, в пасмурную погоду, а также при ветре 12 м/с и более поправка равна нулю.
P - Атмосферное давление - приведенное к уровню моря атмосферное давление.
Po - Атмосферное давление - измеренное на уровне метеостанции атмосферное давление.
Tmin - Минимальная температура - минимум температуры воздуха на высоте 2 м над землей.
Tmax - Максимальная температура - максимум температуры воздуха на высоте 2 м над землей.
R - Количество осадков - Количество выпавших осадков за 3 или 6 часов, мм.
SD - Снежный покров - Высота снежного покрова, см.